Powrót do katalogu

KUIPER-00261

AktywnyŁącznośćLEO
NORAD 67158·PAYLOAD·🇺🇸 United States

Wystrzelony Dec 15, 2025 z Cape Canaveral Space Force Station

Loading…

Następne Przeloty (najbliższe 24 godziny)

TLE

ŚwieżeSource: CelesTrak SupGP

Epoka: Sep 14, 2026, 15:10 UTC

1 67158C 25301AB  26257.63247685 -.00003432  00000+0 -44937-3 0  2571
2 67158  51.9018 315.1773 0000333  74.6724  87.3372 14.79925212    12

Śledź KUIPER-00261 w czasie rzeczywistym z AllMySat

Download on the App Store